Overview Statistics Trail Chart Weather Telemetry Raw packets
 

This is the latest recevied weather packets stored in our database for station/object K7DC. If no packets are shown the sender has not sent any weather packets the latest 10 day(s).

<< 24 25 26 27 28 29 30 >>
Time Temp. Humidity Pressure Rain* Wind** Luminosity Snow
1788471523 38.33° C 32% 1013.5 hPa 0 mm - 662 W/m² -
1788471218 37.78° C 33% 1013.8 hPa 0 mm - 905 W/m² -
1788470914 37.78° C 33% 1014 hPa 0 mm - 880 W/m² -
1788470610 37.78° C 33% 1013.9 hPa 0 mm - 967 W/m² -
1788470309 38.33° C 33% 1014 hPa 0 mm - 655 W/m² -
1788470006 37.78° C 33% 1014 hPa 0 mm - 505 W/m² -
1788469702 37.22° C 34% 1013.9 hPa 0 mm - 1017 W/m² -
1788469402 37.78° C 33% 1014.1 hPa 0 mm - 431 W/m² -
1788469102 37.22° C 34% 1014 hPa 0 mm - 727 W/m² -
1788468801 37.22° C 33% 1014.3 hPa 0 mm - 555 W/m² -
1788468497 37.22° C 33% 1014.1 hPa 0 mm - 732 W/m² -
1788468193 36.67° C 34% 1014.2 hPa 0 mm - 895 W/m² -
1788467888 35.56° C 38% 1014.4 hPa 0 mm - 721 W/m² -
1788467584 37.22° C 34% 1014.2 hPa 0 mm - 690 W/m² -
1788467282 37.78° C 33% 1014.5 hPa 0 mm - 538 W/m² -
1788466980 37.22° C 34% 1014.4 hPa 0 mm - 833 W/m² -
1788466678 37.22° C 34% 1014.7 hPa 0 mm - 918 W/m² -
1788466374 36.67° C 34% 1014.7 hPa 0 mm - 929 W/m² -
1788466072 36.11° C 35% 1014.8 hPa 0 mm - 951 W/m² -
1788465768 35.56° C 36% 1015 hPa 0 mm - 920 W/m² -
1788465463 36.67° C 34% 1014.8 hPa 0 mm - 931 W/m² -
1788465159 36.67° C 34% 1015 hPa 0 mm - 925 W/m² -
1788464859 36.11° C 35% 1015.1 hPa 0 mm - 969 W/m² -
1788464555 35.56° C 37% 1015.1 hPa 0 mm - 919 W/m² -
1788464250 34.44° C 41% 1015.3 hPa 0 mm - 1013 W/m² -

* Rain latest hour (hover to see other rain measurements)
** Current wind speed in m/s (hover to see current wind gust speed)